Change the Weather History Date:

Friday, July 19, 2013

  Actual Average Record
Temperature  
Mean Temperature 66 °F -  
Max Temperature 73 °F 63 °F 75 °F (1966)
Min Temperature 59 °F 49 °F 33 °F (2006)
Cooling Degree Days 1    
Growing Degree Days 16 (Base 50)    
Moisture  
Dew Point 50 °F    
Average Humidity 58    
Maximum Humidity 72    
Minimum Humidity 41    
Precipitation  
Precipitation 0.00 in - - ()
Sea Level Pressure  
Sea Level Pressure 30.14 in    
Wind  
Wind Speed 11 mph (SSW)    
Max Wind Speed 18 mph    
Max Gust Speed 25 mph    
Visibility 10 miles    
Events      
Averages and records for this station are not official NWS values.
T = Trace of Precipitation, MM = Missing Value Source: NWS Daily Summary

Daily Weather History Graph

Daily Weather History Graph

Search for Another Location

Airport or City:

Trip Planner

Search our weather history database for the weather conditions in past years. The results will help you decide how hot, cold, wet, or windy it might be!

Date:

Astronomy

Jul. 19, 2013 Rise Set
Actual Time 5:12 AM AKDT 11:06 PM AKDT
Civil Twilight 3:55 AM AKDT 12:22 AM AKDT
Nautical Twilight Sun does not rise Sun does not rise
Astronomical Twilight Sun does not rise Sun does not rise
Moon 8:16 PM AKDT 2:10 AM AKDT
Length of Visible Light 20h 26m
Length of Day
17h 54m
Waxing Gibbous, 88% of the Moon is Illuminated
Jul 19
Waxing Gibbous
Jul 22
Full
Jul 29
Last Quarter
Aug 6
New
Aug 14
First Quarter

Hourly Weather History & Observations

Time (AKDT) Temp. Dew Point Humidity Pressure Visibility Wind Dir Wind Speed Gust Speed Precip Events Conditions
12:16 AM 64.4 °F 53.6 °F 68% 30.11 in 10.0 mi South 10.4 mph 18.4 mph N/A   Unknown
12:36 AM 64.4 °F 53.6 °F 68% 30.11 in 10.0 mi SSW 13.8 mph 20.7 mph N/A   Unknown
12:56 AM 64.4 °F 53.6 °F 68% 30.12 in 10.0 mi South 12.7 mph 21.9 mph N/A   Unknown
1:16 AM 64.4 °F 53.6 °F 68% 30.12 in 10.0 mi SSW 11.5 mph 23.0 mph N/A   Unknown
1:36 AM 62.6 °F 53.6 °F 72% 30.12 in 10.0 mi South 9.2 mph - N/A   Unknown
1:56 AM 62.6 °F 51.8 °F 68% 30.12 in 10.0 mi South 12.7 mph 19.6 mph N/A   Unknown
2:16 AM 62.6 °F 51.8 °F 68% 30.13 in 10.0 mi South 8.1 mph - N/A   Unknown
2:36 AM 62.6 °F 51.8 °F 68% 30.13 in 10.0 mi South 10.4 mph - N/A   Unknown
2:56 AM 62.6 °F 51.8 °F 68% 30.13 in 10.0 mi South 11.5 mph 18.4 mph N/A   Unknown
3:16 AM 60.8 °F 51.8 °F 72% 30.13 in 10.0 mi South 10.4 mph 18.4 mph N/A   Unknown
3:36 AM 60.8 °F 51.8 °F 72% 30.13 in 10.0 mi South 10.4 mph 23.0 mph N/A   Unknown
3:56 AM 60.8 °F 51.8 °F 72% 30.14 in 10.0 mi South 6.9 mph - N/A   Unknown
4:16 AM 60.8 °F 51.8 °F 72% 30.14 in 10.0 mi South 9.2 mph - N/A   Unknown
4:36 AM 60.8 °F 50.0 °F 68% 30.14 in 10.0 mi South 8.1 mph 16.1 mph N/A   Unknown
4:56 AM 60.8 °F 50.0 °F 68% 30.14 in 10.0 mi South 12.7 mph 21.9 mph N/A   Unknown
5:16 AM 60.8 °F 50.0 °F 68% 30.13 in 10.0 mi South 12.7 mph 19.6 mph N/A   Unknown
5:36 AM 60.8 °F 48.2 °F 63% 30.13 in 10.0 mi South 11.5 mph 20.7 mph N/A   Unknown
5:56 AM 59.0 °F 48.2 °F 67% 30.14 in 10.0 mi South 9.2 mph 21.9 mph N/A   Unknown
6:16 AM 59.0 °F 48.2 °F 67% 30.13 in 10.0 mi South 10.4 mph 19.6 mph N/A   Unknown
6:36 AM 59.0 °F 48.2 °F 67% 30.14 in 10.0 mi South 12.7 mph 20.7 mph N/A   Unknown
6:56 AM 60.8 °F 48.2 °F 63% 30.14 in 10.0 mi SSE 11.5 mph 20.7 mph N/A   Unknown
7:16 AM 60.8 °F 48.2 °F 63% 30.14 in 10.0 mi South 12.7 mph 19.6 mph N/A   Unknown
7:36 AM 60.8 °F 48.2 °F 63% 30.15 in 10.0 mi South 10.4 mph 18.4 mph N/A   Unknown
7:56 AM 60.8 °F 48.2 °F 63% 30.15 in 10.0 mi South 11.5 mph 21.9 mph N/A   Unknown
8:16 AM 60.8 °F 48.2 °F 63% 30.15 in 10.0 mi South 15.0 mph 23.0 mph N/A   Unknown
8:36 AM 60.8 °F 48.2 °F 63% 30.16 in 10.0 mi South 13.8 mph 18.4 mph N/A   Unknown
8:56 AM 60.8 °F 48.2 °F 63% 30.16 in 10.0 mi South 12.7 mph 18.4 mph N/A   Unknown
9:16 AM 62.6 °F 50.0 °F 63% 30.16 in 10.0 mi South 11.5 mph 19.6 mph N/A   Unknown
9:36 AM 62.6 °F 50.0 °F 63% 30.17 in 10.0 mi SSW 9.2 mph 18.4 mph N/A   Unknown
9:56 AM 62.6 °F 50.0 °F 63% 30.16 in 10.0 mi South 12.7 mph 20.7 mph N/A   Unknown
10:16 AM 64.4 °F 50.0 °F 59% 30.17 in 10.0 mi South 16.1 mph 19.6 mph N/A   Unknown
10:36 AM 64.4 °F 50.0 °F 59% 30.16 in 10.0 mi South 17.3 mph 25.3 mph N/A   Unknown
10:56 AM 64.4 °F 50.0 °F 59% 30.16 in 10.0 mi South 18.4 mph 25.3 mph N/A   Unknown
11:16 AM 66.2 °F 50.0 °F 56% 30.17 in 10.0 mi SSW 12.7 mph 19.6 mph N/A   Unknown
11:36 AM 66.2 °F 51.8 °F 60% 30.18 in 10.0 mi SSW 13.8 mph 17.3 mph N/A   Unknown
11:56 AM 66.2 °F 51.8 °F 60% 30.17 in 10.0 mi South 13.8 mph 19.6 mph N/A   Unknown
12:16 PM 66.2 °F 50.0 °F 56% 30.17 in 10.0 mi South 8.1 mph 16.1 mph N/A   Unknown
12:36 PM 68.0 °F 50.0 °F 52% 30.17 in 10.0 mi SW 12.7 mph - N/A   Unknown
12:56 PM 68.0 °F 51.8 °F 56% 30.17 in 10.0 mi SW 12.7 mph 17.3 mph N/A   Unknown
1:16 PM 69.8 °F 51.8 °F 53% 30.17 in 10.0 mi SSW 11.5 mph 17.3 mph N/A   Unknown
1:36 PM 69.8 °F 51.8 °F 53% 30.17 in 10.0 mi South 10.4 mph 16.1 mph N/A   Unknown
1:56 PM 69.8 °F 51.8 °F 53% 30.16 in 10.0 mi South 9.2 mph 17.3 mph N/A   Unknown
2:16 PM 69.8 °F 51.8 °F 53% 30.16 in 10.0 mi WSW 9.2 mph - N/A   Unknown
2:36 PM 71.6 °F 51.8 °F 50% 30.16 in 10.0 mi WSW 9.2 mph - N/A   Unknown
2:56 PM 71.6 °F 50.0 °F 46% 30.16 in 10.0 mi SW 10.4 mph - N/A   Unknown
3:16 PM 71.6 °F 50.0 °F 46% 30.16 in 10.0 mi SSW 9.2 mph - N/A   Unknown
3:36 PM 73.4 °F 50.0 °F 44% 30.16 in 10.0 mi SW 10.4 mph - N/A   Unknown
3:56 PM 71.6 °F 50.0 °F 46% 30.15 in 10.0 mi WSW 11.5 mph 17.3 mph N/A   Unknown
4:16 PM 71.6 °F 50.0 °F 46% 30.15 in 10.0 mi WSW 13.8 mph - N/A   Unknown
4:36 PM 71.6 °F 48.2 °F 43% 30.15 in 10.0 mi West 15.0 mph 20.7 mph N/A   Unknown
4:56 PM 71.6 °F 48.2 °F 43% 30.14 in 10.0 mi WSW 11.5 mph - N/A   Unknown
5:16 PM 73.4 °F 48.2 °F 41% 30.15 in 10.0 mi SW 11.5 mph 20.7 mph N/A   Unknown
5:36 PM 73.4 °F 48.2 °F 41% 30.15 in 10.0 mi SW 15.0 mph 19.6 mph N/A   Unknown
5:56 PM 71.6 °F 48.2 °F 43% 30.14 in 10.0 mi WSW 13.8 mph 19.6 mph N/A   Unknown
6:16 PM 71.6 °F 46.4 °F 41% 30.14 in 10.0 mi SW 10.4 mph 18.4 mph N/A   Unknown
6:36 PM 71.6 °F 48.2 °F 43% 30.13 in 10.0 mi SW 12.7 mph 19.6 mph N/A   Unknown
6:56 PM 71.6 °F 48.2 °F 43% 30.13 in 10.0 mi WSW 15.0 mph - N/A   Unknown
7:16 PM 71.6 °F 48.2 °F 43% 30.13 in 10.0 mi South 10.4 mph 18.4 mph N/A   Unknown
7:36 PM 71.6 °F 48.2 °F 43% 30.14 in 10.0 mi South 9.2 mph 17.3 mph N/A   Unknown
7:56 PM 69.8 °F 48.2 °F 46% 30.13 in 10.0 mi South 12.7 mph - N/A   Unknown
8:16 PM 68.0 °F 48.2 °F 49% 30.13 in 10.0 mi South 5.8 mph - N/A   Unknown
8:36 PM 66.2 °F 48.2 °F 52% 30.13 in 10.0 mi SSW 8.1 mph - N/A   Unknown
8:56 PM 66.2 °F 48.2 °F 52% 30.13 in 10.0 mi SSW 5.8 mph - N/A   Unknown
9:16 PM 64.4 °F 48.2 °F 56% 30.13 in 10.0 mi South 6.9 mph - N/A   Unknown
9:36 PM 64.4 °F 48.2 °F 56% 30.13 in 10.0 mi South 6.9 mph - N/A   Unknown
9:56 PM 62.6 °F 48.2 °F 59% 30.13 in 10.0 mi SSW 6.9 mph - N/A   Unknown
10:16 PM 62.6 °F 48.2 °F 59% 30.13 in 10.0 mi South 9.2 mph - N/A   Unknown
10:36 PM 62.6 °F 48.2 °F 59% 30.13 in 10.0 mi South 8.1 mph - N/A   Unknown
10:56 PM 62.6 °F 48.2 °F 59% 30.12 in 10.0 mi South 9.2 mph - N/A   Unknown
11:16 PM 60.8 °F 46.4 °F 59% 30.13 in 10.0 mi South 8.1 mph - N/A   Unknown
11:36 PM 60.8 °F 46.4 °F 59% 30.12 in 10.0 mi South 9.2 mph - N/A   Unknown
11:56 PM 60.8 °F 46.4 °F 59% 30.12 in 10.0 mi South 10.4 mph 17.3 mph N/A   Unknown